Regional Weather Roundup
Issued by NWS

Home | Current Version | Previous Version | Graphics & Text | Print | Product List | Glossary On
Versions: 1 2 3 4 5 6 7 8 9 10 11 12 13 14 15 16 17 18 19 20 21 22 23 24 25 26 27 28 29 30 31 32 33 34 35 36 37 38 39 40 41 42 43 44 45 46 47 48 49 50
000
ASUS43 KFSD 291002
RWRSD

WEATHER ROUNDUP FOR SOUTH DAKOTA
NATIONAL WEATHER SERVICE SIOUX FALLS SD
500 AM CDT FRI AUG 29 2014

NOTE: "FAIR" INDICATES FEW OR NO CLOUDS BELOW 12,000 FEET WITH NO
SIGNIFICANT WEATHER AND/OR OBSTRUCTIONS TO VISIBILITY.


SDZ001>005-009-010-012>017-291100-
NORTHWEST AND NORTH CENTRAL SOUTH DAKOTA

CITY           SKY/WX    TMP DP  RH WIND       PRES   REMARKS
BUFFALO          N/A     61  52  72 W6        29.80S
FAITH            N/A     60  60 100 S9        29.84S
MOBRIDGE       FOG       64  64 100 SW7       29.79S VSB 1/2
$$

SDZ012>016-024>037-041>051-057-063-072>074-291100-
SOUTHWEST AND SOUTH CENTRAL SOUTH DAKOTA

CITY           SKY/WX    TMP DP  RH WIND       PRES   REMARKS
RAPID CTY ARPT CLEAR     60  51  72 W10       29.89S
PIERRE         CLOUDY    65  65 100 N5        29.80S
CUSTER         CLEAR     50  44  80 W5        30.04S
ELLSWORTH AFB  CLEAR     59  52  76 W10       29.89S
PHILIP         CLEAR     57  55  93 W9        29.83F
PINE RIDGE     CLEAR     49  48  97 CALM      29.91F
WINNER         CLOUDY    67  64  90 W5        29.83S
$$

SDZ004>011-016>023-039-040-291100-
NORTHEAST SOUTH DAKOTA

CITY           SKY/WX    TMP DP  RH WIND       PRES   REMARKS
ABERDEEN       CLOUDY    65  65 100 CALM      29.79S
WATERTOWN      FOG       66  66 100 N3        29.79S VSB 1/2
SISSETON         N/A     65  65 100 N3        29.77F
$$

SDZ017-020-022-023-036>040-048>070-291100-
SOUTHEAST SOUTH DAKOTA

CITY           SKY/WX    TMP DP  RH WIND       PRES   REMARKS
SIOUX FALLS    CLOUDY    71  68  90 SW3       29.77S
HURON          CLOUDY    68  67  96 N5        29.76F FOG
CHAMBERLAIN    MOCLDY    65  65  99 W5        29.81R
MITCHELL       FOG       69  69 100 W6        29.77S VSB 1/2
YANKTON        CLOUDY    66  64  94 W3        29.77S
$$

ABBREVIATIONS USED IN REMARKS
   TC - TEMPERATURE IN CELSIUS
  WCI - WIND CHILL INDEX
   HX - HEAT INDEX
  VSB - VISIBILITY



USA.gov is the U.S. government's official web portal to all federal, state and local government web resources and services.